TimePST,TemperatureF,Dew PointF,Humidity,Sea Level PressureIn,VisibilityMPH,Wind Direction,Wind SpeedMPH,Gust SpeedMPH,PrecipitationIn,Events,Conditions,WindDirDegrees,DateUTC
12:15 AM,44.6,39.2,81,30.13,10.0,North,-9999.0,-,N/A,,Overcast,0,2013-11-15 08:15:00
12:35 AM,44.6,39.2,81,30.13,10.0,North,-9999.0,-,N/A,,Overcast,0,2013-11-15 08:35:00
12:55 AM,44.6,39.2,81,30.13,10.0,North,-9999.0,-,N/A,,Overcast,0,2013-11-15 08:55:00
1:15 AM,44.6,41.0,87,30.12,10.0,North,-9999.0,-,N/A,,Overcast,0,2013-11-15 09:15:00
1:35 AM,44.6,39.2,81,30.12,10.0,North,-9999.0,-,N/A,,Overcast,0,2013-11-15 09:35:00
1:55 AM,44.6,41.0,87,30.12,10.0,North,-9999.0,-,N/A,,Overcast,0,2013-11-15 09:55:00
2:15 AM,44.6,39.2,81,30.12,10.0,North,-9999.0,-,N/A,,Overcast,0,2013-11-15 10:15:00
2:35 AM,44.6,39.2,81,30.12,10.0,North,-9999.0,-,N/A,,Overcast,0,2013-11-15 10:35:00
2:55 AM,44.6,39.2,81,30.12,10.0,North,-9999.0,-,N/A,,Overcast,0,2013-11-15 10:55:00
3:15 AM,44.6,39.2,81,30.12,10.0,North,-9999.0,-,N/A,,Overcast,0,2013-11-15 11:15:00
3:35 AM,44.6,39.2,81,30.10,10.0,North,-9999.0,-,N/A,,Overcast,0,2013-11-15 11:35:00
3:55 AM,44.6,39.2,81,30.10,10.0,North,-9999.0,-,N/A,,Overcast,0,2013-11-15 11:55:00
4:15 AM,44.6,39.2,81,30.10,10.0,North,-9999.0,-,N/A,,Overcast,0,2013-11-15 12:15:00
4:35 AM,44.6,39.2,81,30.10,10.0,North,-9999.0,-,N/A,,Overcast,0,2013-11-15 12:35:00
4:55 AM,44.6,39.2,81,30.09,10.0,North,-9999.0,-,N/A,,Overcast,0,2013-11-15 12:55:00
5:15 AM,44.6,41.0,87,30.08,10.0,North,-9999.0,-,N/A,,Overcast,0,2013-11-15 13:15:00
5:35 AM,44.6,39.2,81,30.09,10.0,North,-9999.0,-,N/A,,Overcast,0,2013-11-15 13:35:00
5:55 AM,44.6,41.0,87,30.08,10.0,North,-9999.0,-,N/A,,Overcast,0,2013-11-15 13:55:00
6:15 AM,44.6,39.2,81,30.08,10.0,North,-9999.0,-,N/A,,Overcast,0,2013-11-15 14:15:00
6:35 AM,44.6,39.2,81,30.07,10.0,North,-9999.0,-,N/A,,Overcast,0,2013-11-15 14:35:00
6:55 AM,44.6,39.2,81,30.09,7.0,North,-9999.0,-,N/A,,Overcast,0,2013-11-15 14:55:00
7:15 AM,44.6,39.2,81,30.07,10.0,North,-9999.0,-,N/A,,Overcast,0,2013-11-15 15:15:00
7:35 AM,44.6,39.2,81,30.07,10.0,North,-9999.0,-,N/A,,Overcast,0,2013-11-15 15:35:00
7:55 AM,44.6,39.2,81,30.07,10.0,North,-9999.0,-,N/A,,Overcast,0,2013-11-15 15:55:00
8:15 AM,44.6,39.2,81,30.06,10.0,North,-9999.0,-,N/A,,Overcast,0,2013-11-15 16:15:00
8:35 AM,44.6,41.0,87,30.06,8.0,North,-9999.0,-,N/A,,Overcast,0,2013-11-15 16:35:00
8:55 AM,44.6,41.0,87,30.05,10.0,North,-9999.0,-,N/A,,Overcast,0,2013-11-15 16:55:00
9:15 AM,44.6,41.0,87,30.04,9.0,North,-9999.0,-,N/A,,Overcast,0,2013-11-15 17:15:00
9:35 AM,44.6,41.0,87,30.03,4.0,North,-9999.0,-,N/A,,Overcast,0,2013-11-15 17:35:00
9:55 AM,44.6,41.0,87,30.02,3.0,North,-9999.0,-,N/A,,Overcast,0,2013-11-15 17:55:00
10:15 AM,46.4,42.8,87,30.01,10.0,North,-9999.0,-,N/A,,Mostly Cloudy,0,2013-11-15 18:15:00
10:35 AM,46.4,41.0,81,30.01,10.0,North,-9999.0,-,N/A,,Overcast,0,2013-11-15 18:35:00
10:55 AM,46.4,41.0,81,29.99,10.0,North,-9999.0,-,N/A,,Overcast,0,2013-11-15 18:55:00
11:15 AM,46.4,41.0,81,29.98,10.0,North,-9999.0,-,N/A,,Overcast,0,2013-11-15 19:15:00
11:35 AM,46.4,41.0,81,29.97,10.0,North,-9999.0,-,N/A,,Overcast,0,2013-11-15 19:35:00
11:55 AM,46.4,41.0,81,29.96,9.0,North,-9999.0,-,N/A,,Overcast,0,2013-11-15 19:55:00
12:15 PM,46.4,41.0,81,29.95,9.0,North,-9999.0,-,N/A,,Overcast,0,2013-11-15 20:15:00
12:35 PM,46.4,41.0,81,29.93,9.0,North,-9999.0,-,0.01,,Overcast,0,2013-11-15 20:35:00
12:55 PM,46.4,41.0,81,29.92,9.0,North,-9999.0,-,0.01,,Overcast,0,2013-11-15 20:55:00
1:15 PM,46.4,42.8,87,29.90,10.0,North,-9999.0,-,0.01,,Overcast,0,2013-11-15 21:15:00
1:35 PM,46.4,41.0,81,29.90,10.0,North,-9999.0,-,0.01,,Overcast,0,2013-11-15 21:35:00
1:55 PM,46.4,41.0,81,29.88,10.0,North,-9999.0,-,0.01,,Overcast,0,2013-11-15 21:55:00
2:15 PM,46.4,41.0,81,29.87,10.0,North,-9999.0,-,N/A,,Overcast,0,2013-11-15 22:15:00
2:35 PM,46.4,42.8,87,29.86,10.0,North,-9999.0,-,0.01,,Overcast,0,2013-11-15 22:35:00
2:55 PM,46.4,41.0,81,29.85,8.0,North,-9999.0,-,0.01,,Overcast,0,2013-11-15 22:55:00
3:15 PM,46.4,41.0,81,29.83,10.0,North,-9999.0,-,0.01,,Overcast,0,2013-11-15 23:15:00
3:35 PM,46.4,41.0,81,29.82,10.0,North,-9999.0,-,0.01,,Overcast,0,2013-11-15 23:35:00
3:55 PM,46.4,41.0,81,29.81,10.0,North,-9999.0,-,0.02,,Overcast,0,2013-11-15 23:55:00
4:15 PM,46.4,41.0,81,29.79,9.0,North,-9999.0,-,0.01,,Overcast,0,2013-11-16 00:15:00
4:35 PM,46.4,42.8,87,29.78,8.0,North,-9999.0,-,0.03,,Overcast,0,2013-11-16 00:35:00
4:55 PM,46.4,42.8,87,29.76,8.0,North,-9999.0,-,0.05,,Overcast,0,2013-11-16 00:55:00
5:15 PM,46.4,42.8,87,29.74,9.0,North,-9999.0,-,0.01,,Overcast,0,2013-11-16 01:15:00
5:35 PM,46.4,42.8,87,29.72,10.0,North,-9999.0,-,0.02,,Overcast,0,2013-11-16 01:35:00
5:55 PM,46.4,41.0,81,29.71,10.0,North,-9999.0,-,0.04,,Overcast,0,2013-11-16 01:55:00
6:15 PM,46.4,41.0,81,29.70,10.0,North,-9999.0,-,0.02,,Overcast,0,2013-11-16 02:15:00
6:35 PM,46.4,42.8,87,29.68,10.0,North,-9999.0,-,0.05,,Overcast,0,2013-11-16 02:35:00
6:55 PM,46.4,42.8,87,29.67,10.0,North,-9999.0,-,0.07,,Overcast,0,2013-11-16 02:55:00
7:15 PM,46.4,42.8,87,29.68,10.0,North,-9999.0,-,0.04,,Overcast,0,2013-11-16 03:15:00
7:35 PM,46.4,42.8,87,29.65,10.0,North,-9999.0,-,0.08,,Overcast,0,2013-11-16 03:35:00
7:55 PM,46.4,42.8,87,29.64,10.0,North,-9999.0,-,0.09,,Overcast,0,2013-11-16 03:55:00
8:15 PM,46.4,42.8,87,29.62,10.0,North,-9999.0,-,0.01,,Overcast,0,2013-11-16 04:15:00
8:35 PM,46.4,42.8,87,29.60,10.0,North,-9999.0,-,0.01,,Overcast,0,2013-11-16 04:35:00
8:55 PM,46.4,42.8,87,29.58,10.0,North,-9999.0,-,0.01,,Overcast,0,2013-11-16 04:55:00
9:15 PM,46.4,42.8,87,29.56,8.0,North,-9999.0,-,N/A,,Overcast,0,2013-11-16 05:15:00
9:35 PM,46.4,42.8,87,29.56,8.0,North,-9999.0,-,0.01,,Overcast,0,2013-11-16 05:35:00
9:55 PM,46.4,42.8,87,29.55,7.0,North,-9999.0,-,0.03,,Overcast,0,2013-11-16 05:55:00
10:15 PM,46.4,42.8,87,29.56,8.0,North,-9999.0,-,0.02,,Overcast,0,2013-11-16 06:15:00
10:35 PM,46.4,42.8,87,29.56,4.0,North,-9999.0,-,0.08,,Overcast,0,2013-11-16 06:35:00
10:55 PM,46.4,42.8,87,29.55,10.0,North,-9999.0,-,0.12,,Overcast,0,2013-11-16 06:55:00
11:15 PM,46.4,44.6,93,29.56,10.0,North,-9999.0,-,N/A,,Overcast,0,2013-11-16 07:15:00
11:35 PM,48.2,42.8,82,29.56,10.0,West,5.8,-,N/A,,Mostly Cloudy,270,2013-11-16 07:35:00
11:55 PM,48.2,42.8,82,29.55,10.0,West,3.5,-,N/A,,Overcast,260,2013-11-16 07:55:00